Regional Weather Roundup
Issued by NWS Boston, MA

Home | Current Version | Previous Version | Text Only | Print | Product List | Glossary On
Versions: 1 2 3 4 5 6 7 8 9 10 11 12 13 14 15 16 17 18 19 20 21 22 23 24 25 26 27
000
ASUS41 KBOX 280410
RWRBOX

REGIONAL WEATHER ROUNDUP
NATIONAL WEATHER SERVICE TAUNTON MA
1200 AM EDT SAT MAY 28 2016

NOTE:  "FAIR" INDICATES FEW OR NO CLOUDS BELOW 12,000 FEET WITH NO
SIGNIFICANT WEATHER AND/OR OBSTRUCTIONS TO VISIBILITY.  THE FOLLOWING
OBSERVATION LOCATIONS DO NOT REPORT PRESENT WEATHER...PROVINCETOWN...
SMITHFIELD...BLOCK ISLAND...KEENE...AND OXFORD.

MAZALL-280500-
EASTERN MASSACHUSETTS

CITY           SKY/WX    TMP DP  RH WIND       PRES   REMARKS
BOSTON         CLEAR     70  61  73 S13       30.04R
BEVERLY        CLEAR     66  59  78 S3        30.03R
LAWRENCE       PTCLDY    63  58  83 CALM      30.04S
BEDFORD        CLEAR     72  63  73 SW8       30.03R
BLUE HILL        N/A     65  60  84 S16       30.06R
NORWOOD        CLEAR     67  60  78 S7        30.05R
MARSHFIELD     CLEAR     68  59  73 SW12G18   30.05R
PLYMOUTH       PTCLDY    67  54  63 SW13      30.09R
TAUNTON        CLEAR     68  55  63 SW7       30.08R
NEW BEDFORD    CLEAR     66  55  67 SW13      30.08R
$$

MAZALL-280500-
CAPE COD AND THE ISLANDS

CITY           SKY/WX    TMP DP  RH WIND       PRES   REMARKS
FALMOUTH       PTCLDY    63  57  82 SW13G20   30.11R
HYANNIS        PTCLDY    65  57  75 SW20G30   30.08S
CHATHAM        PTCLDY    60  58  92 SW8       30.11S
PROVINCETOWN   CLOUDY    61  56  83 SW15      30.08S
NANTUCKET      CLEAR     60  57  89 SW10      30.13R
MARTHAS VNYRD  CLEAR     60  57  89 SW7       30.12R
$$

MAZALL-280500-
CENTRAL AND WESTERN MASSACHUSETTS

CITY           SKY/WX    TMP DP  RH WIND       PRES   REMARKS
WORCESTER      PTCLDY    68  60  75 SW12      30.07S
FITCHBURG      PTCLDY    75  62  64 S3        30.04R
ORANGE         MOCLDY    71  63  75 S6        30.06R
SPRINGFIELD    CLOUDY    70  62  74 S7        30.05R
WESTFIELD      MOCLDY    68  63  84 CALM      30.05R
NORTH ADAMS    PTCLDY    69  67  93 CALM      30.04  FOG
PITTSFIELD     MOCLDY    69  63  81 W3        30.06R
$$

RIZALL-280500-
RHODE ISLAND

CITY           SKY/WX    TMP DP  RH WIND       PRES   REMARKS
PROVIDENCE     PTCLDY    69  53  56 SW10G18   30.09R
NEWPORT        CLEAR     63  55  75 S8        30.10R
BLOCK ISLAND   CLEAR     60  56  86 SW13      30.11R
SMITHFIELD       N/A    N/A N/A N/A MISG        N/A
WESTERLY       CLEAR     65  53  65 SW7       30.10R
$$

CTZALL-280500-
CONNECTICUT

CITY           SKY/WX    TMP DP  RH WIND       PRES   REMARKS
BRADLEY INTL   MOCLDY    70  61  73 S9        30.04S
HARTFORD       PTCLDY    71  60  68 S7        30.05S
BRIDGEPORT     CLOUDY    70  60  70 SW7       30.07R
DANBURY        MOCLDY    67  64  90 CALM      30.08R
GROTON         PTCLDY    62  57  83 SE3       30.08R
NEW HAVEN      PTCLDY    66  58  75 S6        30.08R
CHESTER        FAIR      66  57  72 SW7       30.08S
MERIDEN        PTCLDY    69  59  70 S3        30.07R
WILLIMANTIC    PTCLDY    70  59  68 S5        30.08R
OXFORD           N/A     64  59  82 CALM      30.09R
$$

MEZ002-015-021-024-NHZ003-005-008-011-012-014-VTZ005-008-280500-
NORTHERN NEW ENGLAND

CITY           SKY/WX    TMP DP  RH WIND       PRES   REMARKS
PORTLAND ME    CLOUDY    53  52  96 CALM      30.03S FOG
BANGOR ME      TSTM      55  51  86 S8        30.01F FOG
CONCORD NH     PTCLDY    66  59  78 CALM      30.02R
MANCHESTER NH  CLOUDY    69  60  73 CALM      30.01R
NASHUA NH      CLOUDY    71  65  81 CALM      30.03R
PORTSMOUTH NH  MOCLDY    54  52  95 CALM      30.01S FOG
JAFFREY NH     MOCLDY    70  63  78 S5        30.07R
KEENE NH       PTCLDY    68  64  88 CALM      30.05R
BURLINGTON VT  FAIR      77  64  64 CALM      29.98R
MT. WASHINGTON FOG       54  54 100 W40G53      N/A  VSB 0
$$

NYZ052-076-280500-
EASTERN NEW YORK

CITY           SKY/WX    TMP DP  RH WIND       PRES   REMARKS
ALBANY         PTCLDY    73  67  81 S3        30.02R
NEW YORK CITY  PTCLDY    76  67  73 S9        30.06R
$$

ANZALL-280500-
MARINE OBSERVATIONS

STATION/POSITION TIME  TEMP    WIND        PRES    VSBY  WAVE
                       AIR SEA DIR/SP/G                  HT/PER
                 (UTC) (F)     (DEG/KT/KT) (MB)    (MI)  (FT/S)
BOSTON BUOY      0350   61 58  170/  8/ 10 1017.5R         1/ 9
BUZZARDS BAY     0400   59     220/ 13/ 13 1019.9R
NANTUCKET SOUND  0350   60 57  230/ 14/ 16 1019.4S         1/ 2
MASS BAY-STELLWA 0304   60 57                N/A    1 7/8  2/ 4
ISLE OF SHOALS   0400   53      CALM  /  1 1016.6S
S OF BLOCK IS    0325      55                N/A           3/ 5
$$

......................KEY.........................
  SKY/WX - SKY CONDITION/PRESENT WEATHER
  TMP    - TEMPERATURE IN FAHRENHEIT
  DWPT   - DEWPOINT IN FAHRENHEIT
  RH     - RELATIVE HUMIDITY IN PERCENT
  WIND   - DIRECTION AND SPEED IN MPH
  PRES   - MEAN SEA LEVEL PRESSURE IN INCHES OF HG
  WCI    - WIND CHILL INDEX
  VSB    - VISIBILITY IN MILES
  HX     - HEAT INDEX
  TC     - TEMPERATURE IN CELSIUS
  VRB    - VARIABLE WIND DIRECTION
  N/A    - NOT AVAILABLE




USA.gov is the U.S. government's official web portal to all federal, state and local government web resources and services.